When you browse on this site, cookies collect data to enhance your experience and personalize the content and advertising you see.
Visit our Privacy Policy to learn more. By continuing to use the site, you agree to this use of cookies and data.
  • en France
  • Liste des pays
  • À 7 jours
  • Température de l'eau
  • Carte satellitaire
  • Carte météo
  • Widgets météo
  • user-avatar
    Se connecter

    Météo par heure à Eghegnadzor

    Ce jour, 24 Janvier, Jeudi

    Heure Température Précipitation Vent Pression Humidité
    00:00 -5°C° 0 mm 2 m/s 653 mmHg 72%
    01:00 -5°C° 0 mm 2 m/s 653 mmHg 73%
    02:00 -5°C° 0 mm 2 m/s 653 mmHg 75%
    03:00 -5°C° 0 mm 2 m/s 653 mmHg 76%
    04:00 -6°C° 0 mm 2 m/s 652 mmHg 77%
    05:00 -6°C° 0 mm 2 m/s 652 mmHg 77%
    06:00 -6°C° 0 mm 2 m/s 652 mmHg 77%
    07:00 -5°C° 0 mm 2 m/s 653 mmHg 76%
    08:00 -4°C° 0 mm 2 m/s 653 mmHg 75%
    09:00 -3°C° 0 mm 2 m/s 653 mmHg 74%
    10:00 -2°C° 0 mm 2 m/s 653 mmHg 72%
    11:00 +1°C° 0 mm 2 m/s 653 mmHg 71%
    12:00 +2°C° 0 mm 2 m/s 653 mmHg 69%
    13:00 +2°C° 0 mm 2 m/s 652 mmHg 69%
    14:00 +2°C° 0 mm 2 m/s 652 mmHg 69%
    15:00 +2°C° 0 mm 2 m/s 652 mmHg 69%
    16:00 +1°C° 0 mm 2 m/s 652 mmHg 70%
    17:00 -2°C° 0 mm 2 m/s 651 mmHg 71%
    18:00 -3°C° 0 mm 2 m/s 651 mmHg 71%
    19:00 -3°C° 0 mm 2 m/s 651 mmHg 70%
    20:00 -4°C° 0 mm 2 m/s 651 mmHg 68%
    21:00 -4°C° 0 mm 2 m/s 651 mmHg 66%
    22:00 -4°C° 0 mm 2 m/s 651 mmHg 67%
    23:00 -5°C° 0 mm 3 m/s 651 mmHg 67%

    Demain, 25 Janvier, Vendredi

    Heure Température Précipitation Vent Pression Humidité
    00:00 -5°C° 0 mm 3 m/s 651 mmHg 67%
    01:00 -4°C° 0 mm 2 m/s 650 mmHg 68%
    02:00 -4°C° 0 mm 2 m/s 650 mmHg 69%
    03:00 -4°C° 0 mm 2 m/s 650 mmHg 70%
    04:00 -4°C° 0 mm 2 m/s 650 mmHg 71%
    05:00 -4°C° 0 mm 2 m/s 649 mmHg 72%
    06:00 -4°C° 0 mm 2 m/s 649 mmHg 73%
    07:00 -3°C° 0 mm 2 m/s 649 mmHg 74%
    08:00 -2°C° 0 mm 2 m/s 650 mmHg 75%
    09:00 -1°C° 0 mm 2 m/s 650 mmHg 76%
    10:00 +1°C° 0.2 mm 2 m/s 650 mmHg 78%
    11:00 +1°C° 0.2 mm 2 m/s 650 mmHg 80%
    12:00 +3°C° 0.2 mm 1 m/s 649 mmHg 83%
    13:00 +3°C° 0.2 mm 1 m/s 649 mmHg 83%
    14:00 +2°C° 0.2 mm 2 m/s 649 mmHg 84%
    15:00 +3°C° 0.2 mm 2 m/s 649 mmHg 84%
    16:00 +2°C° 0 mm 1 m/s 649 mmHg 86%
    17:00 +1°C° 0 mm 1 m/s 649 mmHg 89%
    18:00 0°C° 0 mm 1 m/s 649 mmHg 91%
    19:00 0°C° 0 mm 1 m/s 649 mmHg 90%
    20:00 -1°C° 0 mm 1 m/s 650 mmHg 89%
    21:00 -1°C° 0 mm 1 m/s 650 mmHg 88%
    22:00 -3°C° 0 mm 2 m/s 650 mmHg 87%
    23:00 -4°C° 0 mm 2 m/s 650 mmHg 86%

    Après-demain, 26 Janvier, Samedi

    Heure Température Précipitation Vent Pression Humidité
    00:00 -4°C° 0 mm 2 m/s 650 mmHg 86%
    01:00 -4°C° 0 mm 2 m/s 650 mmHg 85%
    02:00 -4°C° 0 mm 2 m/s 650 mmHg 83%
    03:00 -4°C° 0 mm 2 m/s 650 mmHg 82%
    04:00 -4°C° 0 mm 2 m/s 650 mmHg 81%
    05:00 -4°C° 0 mm 2 m/s 650 mmHg 79%
    06:00 -4°C° 0 mm 2 m/s 650 mmHg 77%
    07:00 -3°C° 0 mm 2 m/s 651 mmHg 75%
    08:00 -2°C° 0 mm 2 m/s 651 mmHg 73%
    09:00 +1°C° 0 mm 2 m/s 651 mmHg 71%
    10:00 +2°C° 0 mm 2 m/s 651 mmHg 70%
    11:00 +3°C° 0 mm 2 m/s 651 mmHg 68%
    12:00 +4°C° 0 mm 2 m/s 651 mmHg 67%
    13:00 +4°C° 0 mm 2 m/s 651 mmHg 67%
    14:00 +3°C° 0 mm 3 m/s 650 mmHg 68%
    15:00 +3°C° 0 mm 3 m/s 650 mmHg 68%
    16:00 +1°C° 0 mm 3 m/s 650 mmHg 67%
    17:00 0°C° 0 mm 3 m/s 649 mmHg 66%
    18:00 -2°C° 0 mm 3 m/s 649 mmHg 66%
    19:00 -1°C° 0.1 mm 3 m/s 650 mmHg 67%
    20:00 -1°C° 0.1 mm 3 m/s 650 mmHg 68%
    21:00 0°C° 0.1 mm 3 m/s 650 mmHg 69%
    22:00 0°C° 0.3 mm 3 m/s 650 mmHg 71%
    23:00 0°C° 0.3 mm 3 m/s 650 mmHg 73%

    27 Janvier, Dimanche

    Heure Température Précipitation Vent Pression Humidité
    00:00 0°C° 0.3 mm 3 m/s 650 mmHg 75%
    01:00 0°C° 0.1 mm 3 m/s 650 mmHg 77%
    02:00 0°C° 0.1 mm 3 m/s 649 mmHg 78%
    03:00 0°C° 0.1 mm 3 m/s 649 mmHg 80%
    04:00 0°C° 0.1 mm 3 m/s 649 mmHg 81%
    05:00 0°C° 0.1 mm 3 m/s 649 mmHg 82%
    06:00 0°C° 0.1 mm 3 m/s 648 mmHg 83%
    07:00 +1°C° 0.3 mm 3 m/s 648 mmHg 83%
    08:00 +2°C° 0.3 mm 3 m/s 649 mmHg 82%
    09:00 +3°C° 0.3 mm 3 m/s 649 mmHg 82%
    10:00 +4°C° 0.2 mm 3 m/s 648 mmHg 83%
    11:00 +4°C° 0.2 mm 3 m/s 648 mmHg 83%
    12:00 +5°C° 0.2 mm 3 m/s 648 mmHg 84%
    13:00 +5°C° 0 mm 3 m/s 647 mmHg 83%
    14:00 +5°C° 0 mm 3 m/s 647 mmHg 82%
    15:00 +5°C° 0 mm 3 m/s 646 mmHg 80%
    16:00 +4°C° 0 mm 3 m/s 646 mmHg 80%
    17:00 +3°C° 0 mm 3 m/s 646 mmHg 81%
    18:00 +2°C° 0 mm 3 m/s 646 mmHg 81%
    19:00 +2°C° 0 mm 3 m/s 646 mmHg 82%
    20:00 +3°C° 0 mm 3 m/s 646 mmHg 83%
    21:00 +3°C° 0 mm 3 m/s 646 mmHg 84%
    22:00 +3°C° 0.1 mm 3 m/s 646 mmHg 85%
    23:00 +3°C° 0.1 mm 3 m/s 647 mmHg 87%

    28 Janvier, Lundi

    Heure Température Précipitation Vent Pression Humidité
    00:00 +3°C° 0.1 mm 4 m/s 647 mmHg 88%
    01:00 +3°C° 0.1 mm 3 m/s 647 mmHg 89%
    02:00 +2°C° 0.1 mm 3 m/s 646 mmHg 89%
    03:00 +2°C° 0.1 mm 3 m/s 646 mmHg 90%
    04:00 +2°C° 0 mm 3 m/s 646 mmHg 89%
    05:00 +1°C° 0 mm 3 m/s 646 mmHg 88%
    06:00 +1°C° 0 mm 3 m/s 646 mmHg 87%
    07:00 +2°C° 0 mm 3 m/s 646 mmHg 84%
    08:00 +2°C° 0 mm 3 m/s 647 mmHg 80%
    09:00 +3°C° 0 mm 3 m/s 647 mmHg 76%
    10:00 +5°C° 0 mm 2 m/s 646 mmHg 73%
    11:00 +6°C° 0 mm 2 m/s 646 mmHg 71%
    12:00 +7°C° 0 mm 2 m/s 646 mmHg 68%
    13:00 +7°C° 0.2 mm 1 m/s 646 mmHg 70%
    14:00 +7°C° 0.2 mm 1 m/s 645 mmHg 71%
    15:00 +6°C° 0.2 mm 1 m/s 645 mmHg 73%
    16:00 +5°C° 0.4 mm 1 m/s 645 mmHg 75%
    17:00 +5°C° 0.4 mm 1 m/s 645 mmHg 77%
    18:00 +4°C° 0.4 mm 1 m/s 645 mmHg 79%
    19:00 +4°C° 0.3 mm 1 m/s 645 mmHg 80%
    20:00 +4°C° 0.3 mm 1 m/s 645 mmHg 80%
    21:00 +4°C° 0.3 mm 1 m/s 645 mmHg 81%
    22:00 +3°C° 0.2 mm 1 m/s 646 mmHg 81%
    23:00 +2°C° 0.2 mm 0 m/s 646 mmHg 82%

    29 Janvier, Mardi

    Heure Température Précipitation Vent Pression Humidité
    00:00 +2°C° 0.2 mm 0 m/s 646 mmHg 82%
    01:00 +1°C° 0.2 mm 0 m/s 646 mmHg 82%
    02:00 +2°C° 0.2 mm 1 m/s 647 mmHg 82%
    03:00 +1°C° 0.2 mm 1 m/s 647 mmHg 83%
    04:00 +1°C° 0.2 mm 1 m/s 647 mmHg 81%
    05:00 +1°C° 0.2 mm 1 m/s 647 mmHg 80%
    06:00 +1°C° 0.2 mm 1 m/s 648 mmHg 79%
    07:00 +1°C° 0.2 mm 1 m/s 649 mmHg 79%
    08:00 +2°C° 0.2 mm 1 m/s 649 mmHg 80%
    09:00 +2°C° 0.2 mm 1 m/s 650 mmHg 80%
    10:00 +2°C° 0.1 mm 2 m/s 650 mmHg 79%
    11:00 +2°C° 0.1 mm 2 m/s 651 mmHg 77%
    12:00 +3°C° 0.1 mm 2 m/s 651 mmHg 76%
    13:00 +3°C° 0 mm 2 m/s 651 mmHg 74%
    14:00 +3°C° 0 mm 2 m/s 651 mmHg 73%
    15:00 +3°C° 0 mm 2 m/s 651 mmHg 71%
    16:00 +2°C° 0 mm 1 m/s 652 mmHg 74%
    17:00 +1°C° 0 mm 1 m/s 652 mmHg 77%
    18:00 -2°C° 0 mm 0 m/s 652 mmHg 81%
    19:00 -1°C° 0 mm 1 m/s 652 mmHg 80%
    20:00 -1°C° 0 mm 1 m/s 653 mmHg 78%
    21:00 -2°C° 0 mm 1 m/s 653 mmHg 77%
    22:00 -2°C° 0 mm 1 m/s 654 mmHg 76%
    23:00 -2°C° 0 mm 1 m/s 654 mmHg 75%
    Voir plus